TimeIST,TemperatureF,Dew PointF,Humidity,Sea Level PressureIn,VisibilityMPH,Wind Direction,Wind SpeedMPH,Gust SpeedMPH,PrecipitationIn,Events,Conditions,WindDirDegrees,DateUTC
12:00 AM,64.4,46.4,52,30.04,1.2,Calm,Calm,-,N/A,,Smoke,0,2013-11-22 18:30:00
1:00 AM,60.8,48.2,63,30.04,1.2,Calm,Calm,-,N/A,,Smoke,0,2013-11-22 19:30:00
2:00 AM,59.0,48.2,67,30.04,1.2,Calm,Calm,-,N/A,,Smoke,0,2013-11-22 20:30:00
2:30 AM,62,46,45,29.99,1,Calm,Calm,,,,Smoke,,2013-11-22 21:00:00
3:00 AM,59.0,48.2,67,30.01,1.2,Calm,Calm,-,N/A,,Smoke,0,2013-11-22 21:30:00
4:00 AM,57.2,48.2,72,30.01,1.2,Calm,Calm,-,N/A,,Smoke,0,2013-11-22 22:30:00
5:00 AM,57.2,48.2,72,30.01,1.2,Calm,Calm,-,N/A,,Smoke,0,2013-11-22 23:30:00
5:30 AM,65,51,50,29.91,1,Calm,Calm,,,,Haze,,2013-11-23 00:00:00
6:00 AM,57.2,46.4,67,30.01,1.2,Calm,Calm,-,N/A,,Smoke,0,2013-11-23 00:30:00
7:00 AM,59.0,46.4,63,30.01,1.2,Calm,Calm,-,N/A,,Smoke,0,2013-11-23 01:30:00
8:00 AM,62.6,48.2,59,30.04,1.2,Variable,2.3,-,N/A,,Smoke,0,2013-11-23 02:30:00
8:30 AM,-9999,-9999,,30.01,1,Calm,Calm,,,,Smoke,,2013-11-23 03:00:00
9:00 AM,69.8,48.2,46,30.06,1.2,East,4.6,-,N/A,,Smoke,90,2013-11-23 03:30:00
11:00 AM,75.2,48.2,38,30.06,1.9,South,5.8,-,N/A,,Haze,170,2013-11-23 05:30:00
11:30 AM,78,47,22,29.98,1,SSW,5.8,,,,Haze,200,2013-11-23 06:00:00
12:00 PM,77.0,46.4,34,30.04,1.9,South,5.8,-,N/A,,Haze,180,2013-11-23 06:30:00
1:00 PM,78.8,46.4,32,30.01,2.5,SSW,3.5,-,N/A,,Haze,200,2013-11-23 07:30:00
2:00 PM,80.6,44.6,28,29.98,2.5,Variable,3.5,-,N/A,,Haze,0,2013-11-23 08:30:00
2:30 PM,83,48,19,29.88,2,South,4.6,,,,Haze,180,2013-11-23 09:00:00
3:00 PM,80.6,42.8,26,29.95,2.5,SW,4.6,-,N/A,,Haze,220,2013-11-23 09:30:00
4:00 PM,80.6,42.8,26,29.95,2.5,SW,4.6,-,N/A,,Haze,230,2013-11-23 10:30:00
5:00 PM,78.8,42.8,28,29.95,2.5,West,3.5,-,N/A,,Haze,260,2013-11-23 11:30:00
5:30 PM,79,45,19,29.88,1,West,2.3,,,,Haze,270,2013-11-23 12:00:00
7:00 PM,69.8,46.4,43,29.98,1.2,Calm,Calm,-,N/A,,Smoke,0,2013-11-23 13:30:00
8:00 PM,68.0,46.4,46,29.98,1.2,Calm,Calm,-,N/A,,Smoke,0,2013-11-23 14:30:00
8:30 PM,66,42,30,29.96,1,Calm,Calm,,,,Smoke,,2013-11-23 15:00:00
9:00 PM,64.4,46.4,52,30.01,0.9,Calm,Calm,-,N/A,,Smoke,0,2013-11-23 15:30:00
10:00 PM,66.2,46.4,49,30.01,1.2,Variable,1.2,-,N/A,,Smoke,0,2013-11-23 16:30:00
11:00 PM,64.4,46.4,52,30.01,1.2,Calm,Calm,-,N/A,,Smoke,0,2013-11-23 17:30:00
11:30 PM,62,46,45,29.97,1,Calm,Calm,,,,Smoke,,2013-11-23 18:00:00